Temperature
-2 -2 -2 -2 -1 -1 -1 -1 -1 -1 -1 -1 -0 -0 0 0 0 0 1 1 1 1 2 2 2 2 2 2 2 2 2 2 2 2 2 3 3 3 4 4 4 4 4
-2 -2 -2 -2 -2 -2 -2 -1 -2 -1 -1 -1 -1 -1 -0 -0 -0 -0 0 0 1 1 1 1 1 2 2 2 2 2 2 2 2 2 2 2 2 2 3 3 3 3 4
-3 -3 -3 -3 -3 -3 -2 -2 -2 -2 -2 -2 -2 -1 -1 -1 -1 -1 -0 -0 -0 0 0 1 1 1 1 1 1 1 1 1 1 1 1 1 2 2 2 2 3 3 3
-4 -4 -4 -3 -3 -3 -3 -2 -2 -2 -2 -2 -2 -2 -2 -2 -1 -1 -1 -1 -1 -1 -0 0 0 0 0 1 1 1 1 1 1 1 1 1 1 1 1 1 2 2 2
-4 -4 -4 -4 -4 -4 -3 -3 -3 -3 -3 -3 -3 -2 -2 -2 -2 -2 -2 -2 -1 -1 -1 -1 -0 -0 -0 -0 -0 0 0 0 0 0 0 0 0 1 1 1 1 1 2
-4 -4 -5 -5 -4 -4 -4 -4 -3 -3 -3 -3 -3 -3 -3 -3 -3 -2 -2 -2 -2 -2 -1 -1 -1 -1 -1 -0 -0 -0 0 0 -0 -0 -0 -0 0 0 1 0 0 0 1
-5 -5 -5 -5 -5 -5 -4 -4 -4 -4 -4 -3 -3 -3 -3 -3 -3 -3 -3 -3 -3 -2 -2 -2 -2 -1 -1 -1 -1 -0 -0 -0 -0 -0 -0 -0 0 0 0 0 0 0 0
-5 -5 -5 -5 -5 -5 -5 -5 -4 -4 -4 -4 -4 -3 -3 -3 -3 -3 -3 -3 -3 -3 -3 -2 -2 -2 -1 -1 -1 -1 -1 -1 -0 -0 -0 -0 -0 -0 -0 -0 -0 -0 -0
-6 -5 -5 -5 -5 -5 -5 -5 -5 -5 -4 -4 -4 -4 -4 -4 -4 -4 -4 -4 -3 -3 -3 -3 -2 -2 -2 -2 -2 -2 -1 -1 -1 -1 -1 -1 -1 -1 -1 -1 -1 -1 -1
-6 -6 -6 -6 -6 -6 -5 -5 -5 -5 -5 -5 -4 -4 -4 -4 -4 -4 -4 -4 -4 -4 -3 -3 -3 -2 -2 -2 -2 -2 -2 -1 -1 -1 -1 -1 -1 -1 -1 -1 -1 -1 -1
-6 -6 -6 -6 -6 -6 -6 -6 -6 -6 -5 -5 -5 -5 -5 -5 -4 -4 -4 -5 -4 -4 -4 -3 -3 -3 -3 -3 -3 -2 -2 -2 -2 -2 -2 -2 -2 -2 -1 -2 -2 -2 -2
-7 -6 -6 -6 -6 -6 -6 -6 -6 -6 -6 -6 -5 -5 -5 -5 -5 -5 -5 -5 -4 -4 -4 -4 -4 -4 -3 -3 -3 -3 -3 -3 -3 -3 -3 -3 -2 -2 -2 -2 -2 -2 -2
-7 -7 -7 -6 -6 -6 -6 -6 -6 -6 -6 -6 -6 -6 -6 -6 -6 -5 -5 -5 -5 -5 -4 -4 -4 -4 -4 -4 -4 -4 -3 -3 -3 -3 -3 -3 -3 -3 -3 -3 -3 -3 -3
-8 -7 -7 -7 -7 -7 -7 -7 -6 -6 -6 -6 -6 -6 -6 -6 -6 -6 -6 -6 -5 -5 -5 -5 -5 -5 -5 -5 -4 -4 -4 -4 -4 -4 -4 -4 -3 -3 -3 -3 -3 -3 -3
-8 -8 -8 -7 -7 -7 -7 -7 -7 -7 -7 -7 -7 -7 -7 -7 -6 -6 -6 -6 -6 -6 -6 -5 -5 -5 -5 -5 -5 -5 -5 -5 -5 -4 -4 -4 -4 -4 -4 -4 -4 -4 -4
-9 -9 -8 -8 -8 -8 -8 -7 -7 -7 -7 -7 -7 -7 -7 -7 -7 -7 -6 -6 -6 -6 -6 -6 -6 -6 -6 -6 -6 -5 -5 -5 -5 -5 -5 -4 -4 -4 -4 -4 -4 -4 -4
-9 -9 -9 -9 -8 -8 -8 -8 -8 -7 -7 -7 -7 -7 -7 -7 -7 -7 -7 -7 -6 -7 -7 -7 -7 -7 -7 -7 -6 -6 -6 -6 -6 -6 -5 -5 -5 -5 -5 -5 -5 -5 -5
-10 -9 -9 -9 -9 -9 -9 -9 -9 -8 -8 -7 -7 -7 -7 -7 -7 -7 -7 -7 -7 -7 -7 -7 -7 -7 -7 -7 -7 -7 -6 -6 -6 -6 -6 -5 -5 -5 -5 -5 -5 -5 -5
-10 -10 -10 -10 -10 -9 -9 -9 -9 -9 -9 -9 -8 -8 -8 -8 -8 -8 -8 -8 -8 -7 -7 -7 -7 -7 -7 -7 -7 -7 -7 -6 -6 -6 -6 -6 -6 -6 -6 -6 -6 -6 -6
-10 -10 -10 -10 -10 -10 -10 -10 -10 -10 -10 -9 -9 -9 -9 -8 -8 -8 -8 -8 -8 -8 -8 -8 -8 -8 -8 -7 -7 -7 -7 -7 -6 -6 -6 -6 -6 -6 -6 -6 -6 -6 -6
-11 -11 -11 -10 -10 -10 -11 -11 -11 -11 -10 -10 -10 -10 -9 -9 -9 -9 -9 -9 -9 -8 -8 -8 -8 -8 -8 -8 -8 -7 -7 -7 -7 -7 -7 -6 -6 -6 -6 -6 -6 -6 -6
-11 -11 -11 -11 -11 -11 -11 -11 -11 -11 -11 -11 -10 -10 -10 -10 -9 -9 -9 -9 -9 -9 -9 -9 -8 -8 -8 -8 -8 -8 -8 -7 -7 -7 -7 -7 -6 -6 -6 -6 -6 -6 -6
-11 -11 -11 -11 -11 -11 -11 -11 -11 -11 -11 -11 -11 -11 -10 -10 -10 -10 -9 -9 -9 -9 -9 -9 -9 -9 -9 -8 -8 -8 -8 -8 -7 -7 -7 -7 -7 -6 -6 -6 -6 -6 -7
-12 -12 -12 -12 -12 -12 -12 -12 -12 -12 -11 -11 -11 -11 -11 -11 -11 -10 -10 -10 -10 -10 -10 -10 -9 -9 -9 -9 -9 -8 -8 -8 -8 -8 -7 -7 -7 -7 -7 -7 -7 -7 -7
-12 -12 -12 -12 -12 -12 -12 -12 -12 -12 -12 -12 -12 -12 -11 -11 -11 -11 -11 -10 -10 -10 -10 -10 -10 -10 -9 -9 -9 -9 -8 -8 -8 -8 -8 -8 -7 -7 -7 -7 -7 -7 -7
-13 -13 -13 -13 -13 -13 -13 -12 -12 -12 -12 -12 -12 -12 -12 -12 -11 -11 -11 -11 -11 -11 -10 -10 -10 -10 -10 -9 -9 -9 -9 -8 -8 -8 -8 -8 -8 -8 -7 -7 -8 -8 -8
Wind_Speed
5 5 5 5 5 5 5 6 5 5 5 5 5 5 5 5 4 4 4 4 5 5 4 4 6 5 4 3 3 3 3 3 6 5 3 3 3 4 5 6 8 7 7
5 5 5 5 5 6 6 6 6 6 6 6 5 5 5 5 5 5 6 5 5 6 5 5 6 5 5 4 4 4 4 4 5 6 4 3 4 4 4 5 5 7 7
4 5 5 6 6 6 6 6 6 6 6 6 6 6 6 6 6 6 6 6 6 7 6 6 6 6 6 5 5 5 5 4 4 5 6 4 4 3 4 5 4 4 6
4 5 5 6 7 7 6 6 6 6 6 6 7 7 7 7 7 7 7 7 6 7 6 6 6 7 7 7 6 7 5 5 4 5 5 5 4 4 3 4 4 3 4
5 5 6 6 6 6 6 6 6 6 7 6 7 7 7 7 7 7 6 7 7 7 7 7 7 8 9 8 7 7 7 6 5 5 6 5 5 4 5 4 5 4 4
5 6 6 6 6 6 6 6 6 7 7 7 7 8 8 7 8 9 8 7 7 8 8 7 7 9 9 10 11 10 9 9 8 7 6 7 8 6 5 5 5 5 6
6 7 6 6 6 6 6 6 7 7 6 7 8 8 8 9 10 10 10 7 8 8 8 7 7 7 8 8 9 11 10 12 13 10 10 11 10 8 7 8 8 7 8
6 7 7 6 6 6 6 7 7 7 7 7 8 8 8 8 9 10 10 8 8 8 8 8 8 8 8 8 8 9 9 10 11 10 11 11 10 9 10 10 9 7 5
7 7 7 6 7 7 7 7 7 6 7 7 7 7 8 8 9 9 9 6 7 8 8 8 8 9 11 11 9 9 9 9 11 13 15 13 13 13 10 6 6 6 7
8 8 7 7 7 7 7 7 6 6 7 7 7 7 7 8 9 10 9 6 7 7 7 8 10 10 11 11 9 9 10 9 7 7 8 9 10 10 12 10 8 8 6
8 7 7 7 7 7 6 6 5 5 6 6 7 6 7 8 8 10 10 6 6 6 7 6 7 10 11 11 10 9 10 8 7 7 7 7 7 7 7 8 8 8 8
7 7 7 6 5 5 5 5 5 5 5 5 5 6 5 6 8 9 10 10 8 7 7 7 7 10 11 12 10 10 11 9 6 6 6 7 7 7 6 6 7 7 8
7 7 6 6 4 4 4 4 4 4 4 5 4 5 5 4 6 10 10 11 10 7 7 10 10 11 11 9 10 10 8 6 5 6 7 7 6 6 5 4 5 5 5
6 6 5 4 4 4 4 4 4 4 4 5 5 5 5 5 5 5 5 6 8 7 6 8 9 9 8 8 7 6 6 6 6 7 7 6 5 5 6 5 5 5 5
6 5 5 4 4 4 4 4 5 5 5 5 5 5 5 6 7 8 7 5 5 6 5 4 4 5 5 4 5 5 5 5 6 6 6 6 5 6 6 5 5 5 6
5 5 4 4 4 4 4 5 7 6 8 8 8 7 7 8 9 9 9 10 9 7 5 4 5 5 5 5 5 5 5 5 5 5 5 6 6 6 6 5 5 6 6
5 5 4 4 4 4 4 4 5 6 7 7 8 8 8 8 9 9 9 8 8 6 4 4 5 5 5 5 5 6 6 5 5 5 6 6 6 6 6 6 6 6 6
5 6 5 4 4 4 4 4 4 4 5 5 7 8 9 8 8 8 7 6 4 4 4 4 5 5 5 5 5 6 6 5 5 5 6 6 6 6 6 6 6 7 6
5 5 4 4 4 4 4 4 4 4 4 5 5 6 8 7 7 7 5 3 4 4 4 4 4 5 5 5 5 6 6 5 5 5 5 6 6 6 6 6 6 8 7
5 8 7 4 4 4 4 4 4 4 4 4 5 5 5 5 3 4 3 3 3 4 4 4 4 5 5 5 5 5 5 5 5 5 5 5 5 6 6 7 6 6 6
5 6 8 5 4 4 4 4 4 4 4 4 4 6 7 4 3 4 3 3 3 3 4 4 4 4 4 4 4 5 5 5 4 4 4 5 5 5 5 6 6 6 5
5 5 4 4 4 4 4 4 4 4 4 5 5 6 9 4 3 3 3 3 3 3 3 3 4 4 4 4 4 4 5 5 4 4 4 4 4 4 5 5 5 5 5
5 5 5 4 4 6 5 4 4 4 4 5 5 5 5 4 3 3 3 3 3 3 3 3 3 3 4 5 5 5 5 5 5 5 5 4 4 4 4 4 5 5 5
5 5 5 4 4 4 4 4 4 4 4 5 5 5 4 4 4 4 4 4 3 3 4 4 3 4 6 6 6 6 6 6 6 6 6 5 5 4 4 4 5 6 5
5 5 4 4 4 4 4 4 4 5 5 5 5 5 5 5 4 4 4 4 4 4 5 5 4 5 6 8 8 7 8 8 7 5 5 4 5 5 5 5 5 5 5
5 5 4 4 4 4 4 4 5 5 5 5 5 5 5 5 5 5 5 4 5 5 5 5 6 7 8 8 8 9 9 8 8 7 5 3 3 3 4 4 5 5 5
Wind_Direction
254 252 255 256 254 255 255 257 256 256 264 255 249 246 248 252 253 250 251 255 257 265 267 260 252 250 246 248 237 234 240 238 257 273 270 247 239 244 260 256 252 248 252
264 258 256 258 257 253 254 256 259 254 260 255 252 243 246 250 250 249 250 251 249 254 257 261 259 252 249 247 237 237 242 242 247 266 271 256 249 238 243 252 256 253 251
266 270 263 256 254 252 254 255 258 252 257 255 251 243 246 250 251 252 245 246 247 249 249 251 256 247 246 248 241 236 243 252 248 251 264 263 257 244 251 261 252 250 257
277 270 271 263 254 252 253 252 253 249 248 251 249 244 244 250 251 252 253 248 249 253 252 249 250 248 243 243 243 235 237 243 246 245 256 259 257 243 236 250 260 245 255
276 276 273 276 268 259 256 252 251 250 249 252 251 249 246 246 245 249 253 248 247 252 254 251 252 255 255 248 251 236 228 232 236 243 248 260 253 237 240 245 250 259 260
277 276 276 277 280 268 258 258 252 250 248 248 250 247 245 249 258 263 261 248 247 249 254 256 255 253 257 261 259 251 239 232 231 236 247 245 247 244 246 238 240 252 267
279 278 275 275 278 275 262 255 250 247 250 250 248 243 245 251 261 263 263 253 246 246 248 253 260 259 259 253 258 253 248 245 238 235 239 241 243 238 242 241 235 241 255
277 278 280 280 278 279 270 254 250 250 249 250 250 242 245 254 261 263 266 251 247 248 246 244 250 253 252 253 254 247 244 243 241 237 237 240 241 233 230 240 240 253 263
279 280 281 279 272 270 268 263 255 253 255 251 248 243 243 254 259 261 264 245 252 253 252 250 248 249 256 259 254 249 253 253 253 249 247 248 247 246 240 237 234 236 253
281 281 281 274 265 264 265 265 262 256 254 254 254 247 245 251 259 258 258 245 254 258 258 256 255 258 260 258 251 245 248 253 251 251 252 253 247 240 234 224 224 231 247
286 286 281 273 265 262 263 265 262 263 261 255 255 256 251 254 261 261 259 250 251 258 260 259 258 268 268 265 265 252 254 257 249 244 246 244 240 235 231 230 226 226 235
294 291 287 282 273 267 260 264 260 253 258 257 258 265 261 258 260 261 264 265 264 256 261 261 261 266 269 269 270 266 268 268 254 248 247 245 241 238 234 233 235 237 240
301 298 297 294 288 278 264 262 264 250 249 253 252 261 271 269 263 267 268 270 270 264 260 267 273 272 275 272 271 267 263 254 243 245 250 250 245 237 233 233 235 238 246
304 305 305 302 300 295 285 271 262 250 247 253 254 259 267 269 264 261 258 266 269 269 267 269 276 277 275 272 269 260 249 245 243 245 250 253 245 234 232 229 232 228 238
310 310 312 307 303 299 294 279 273 261 252 254 251 250 255 259 263 269 269 263 256 259 271 268 263 262 261 260 260 254 248 245 252 251 247 246 240 238 238 231 228 232 236
315 317 314 312 308 303 302 307 303 292 289 282 276 269 267 268 276 276 279 280 280 277 270 258 259 260 260 261 260 263 255 248 249 250 248 246 241 237 239 235 227 227 229
314 314 311 309 306 303 302 303 310 319 312 303 298 292 283 282 283 284 287 287 279 277 263 255 257 257 258 258 259 259 260 253 249 248 247 246 245 239 232 229 228 227 229
315 311 311 305 303 303 302 300 299 304 314 317 315 307 301 294 291 291 293 292 271 271 258 258 262 263 261 259 259 260 259 254 248 247 247 247 243 237 233 229 228 228 228
317 316 311 309 308 308 308 308 308 308 307 309 316 319 318 313 308 299 299 274 262 267 269 268 266 265 266 265 262 259 257 254 252 251 246 244 239 232 230 229 229 231 231
318 318 322 318 316 317 316 314 312 312 312 311 312 313 319 321 315 312 308 288 273 272 271 269 270 268 267 267 267 263 263 261 255 251 247 243 237 228 227 226 226 227 230
321 323 327 326 321 317 315 312 313 316 314 313 310 314 321 324 315 309 308 298 285 283 282 278 272 270 270 271 269 267 267 266 258 251 248 247 240 231 225 224 224 225 224
321 320 321 319 319 319 318 319 321 318 318 317 319 322 329 334 321 315 317 316 308 295 284 281 280 275 273 270 269 268 267 267 265 261 257 252 248 234 223 219 219 217 214
326 323 323 324 323 324 329 331 326 324 324 325 326 328 331 334 333 330 328 326 323 319 310 301 299 298 291 283 275 265 263 263 260 254 253 251 244 236 226 221 217 213 215
334 330 327 327 328 330 329 329 329 329 329 329 331 330 332 335 335 335 335 330 330 327 319 313 307 306 307 304 296 287 277 275 270 258 248 245 242 238 230 222 220 216 215
334 332 331 330 330 330 329 330 332 332 332 331 331 334 338 339 338 338 337 335 334 331 328 321 315 314 313 311 309 306 303 303 299 284 260 247 238 234 225 216 215 215 217
331 330 329 330 329 328 328 329 330 331 331 331 334 336 337 338 338 336 336 338 339 336 333 328 324 321 317 316 316 321 322 320 317 313 295 255 233 228 221 217 213 213 209
Height
1483 1483 1482 1481 1481 1481 1481 1480 1480 1480 1480 1479 1479 1479 1479 1480 1480 1480 1480 1481 1481 1482 1482 1483 1483 1484 1485 1486 1487 1488 1488 1489 1488 1487 1489 1490 1491 1491 1492 1493 1494 1494 1495
1478 1478 1477 1476 1476 1475 1475 1475 1475 1474 1474 1474 1474 1474 1474 1474 1475 1475 1475 1475 1476 1476 1477 1477 1478 1479 1480 1481 1482 1483 1484 1484 1485 1483 1483 1485 1486 1487 1487 1487 1488 1488 1489
1473 1472 1472 1471 1470 1469 1469 1469 1469 1469 1469 1469 1468 1468 1468 1468 1469 1469 1470 1470 1471 1471 1472 1472 1473 1474 1475 1476 1476 1477 1478 1479 1479 1479 1479 1480 1480 1481 1482 1481 1482 1482 1483
1468 1467 1466 1465 1465 1464 1463 1463 1463 1463 1463 1463 1462 1463 1463 1463 1463 1464 1464 1464 1465 1466 1466 1467 1468 1468 1469 1470 1471 1472 1473 1474 1474 1474 1474 1474 1475 1476 1476 1476 1475 1476 1477
1463 1461 1460 1459 1459 1458 1457 1457 1457 1457 1457 1457 1457 1457 1457 1457 1457 1458 1458 1459 1459 1460 1461 1461 1462 1463 1463 1465 1466 1466 1468 1468 1469 1469 1469 1468 1468 1469 1470 1470 1470 1470 1470
1457 1456 1455 1454 1453 1452 1451 1451 1451 1451 1451 1451 1451 1451 1450 1451 1451 1452 1453 1453 1454 1454 1455 1455 1456 1457 1458 1459 1460 1461 1462 1463 1463 1463 1462 1462 1462 1464 1464 1465 1464 1464 1463
1452 1451 1450 1448 1447 1446 1446 1446 1445 1445 1445 1445 1444 1444 1444 1445 1445 1446 1447 1448 1448 1448 1449 1449 1450 1451 1452 1453 1453 1454 1455 1456 1457 1457 1456 1455 1456 1457 1459 1459 1459 1458 1457
1447 1446 1444 1442 1441 1440 1440 1439 1439 1439 1438 1438 1438 1438 1438 1438 1439 1440 1441 1442 1442 1443 1443 1444 1444 1444 1446 1447 1447 1447 1448 1448 1449 1450 1449 1449 1450 1451 1452 1453 1452 1452 1452
1442 1440 1439 1437 1436 1435 1434 1433 1433 1433 1432 1432 1432 1432 1432 1432 1433 1434 1436 1436 1436 1436 1437 1438 1438 1438 1439 1441 1441 1440 1440 1441 1442 1443 1443 1443 1443 1444 1445 1446 1445 1446 1444
1437 1435 1433 1432 1430 1429 1428 1427 1427 1427 1426 1426 1426 1426 1426 1426 1427 1428 1430 1430 1430 1430 1431 1431 1432 1432 1433 1434 1434 1433 1432 1433 1434 1435 1435 1435 1435 1436 1437 1438 1438 1439 1437
1432 1430 1428 1426 1424 1423 1422 1421 1421 1420 1420 1420 1420 1420 1420 1420 1421 1422 1423 1424 1424 1424 1424 1424 1424 1425 1425 1426 1427 1426 1426 1427 1427 1427 1426 1426 1427 1427 1428 1430 1431 1431 1431
1427 1425 1422 1420 1419 1417 1416 1416 1415 1415 1414 1414 1414 1414 1414 1415 1415 1415 1417 1418 1418 1418 1417 1417 1417 1418 1418 1419 1419 1419 1419 1420 1419 1419 1419 1418 1418 1419 1420 1421 1422 1423 1424
1422 1420 1417 1415 1414 1413 1412 1411 1410 1410 1409 1408 1408 1408 1408 1408 1409 1410 1411 1411 1412 1412 1412 1412 1411 1411 1411 1411 1411 1411 1412 1412 1412 1411 1411 1410 1410 1411 1412 1414 1414 1415 1416
1418 1416 1413 1411 1409 1408 1408 1407 1406 1404 1404 1403 1403 1402 1402 1403 1403 1404 1404 1405 1405 1405 1405 1404 1404 1404 1404 1403 1403 1403 1404 1404 1404 1404 1403 1403 1403 1404 1405 1406 1406 1407 1408
1415 1412 1409 1408 1406 1405 1403 1402 1401 1400 1400 1399 1398 1399 1398 1397 1398 1399 1399 1399 1399 1399 1398 1397 1396 1396 1396 1396 1396 1396 1396 1397 1397 1397 1396 1396 1396 1396 1397 1398 1399 1400 1400
1412 1409 1407 1405 1403 1402 1400 1398 1397 1396 1395 1395 1395 1395 1394 1394 1394 1394 1394 1394 1394 1394 1393 1391 1390 1390 1390 1389 1389 1389 1389 1389 1389 1389 1389 1389 1389 1389 1390 1391 1392 1393 1393
1410 1407 1405 1403 1401 1398 1396 1394 1392 1392 1392 1391 1391 1390 1390 1389 1389 1389 1388 1389 1388 1388 1387 1385 1384 1384 1384 1383 1383 1382 1382 1382 1383 1383 1382 1382 1383 1383 1383 1383 1384 1385 1386
1407 1405 1403 1400 1398 1396 1394 1392 1391 1388 1387 1386 1386 1386 1385 1384 1384 1383 1383 1383 1382 1382 1381 1380 1379 1378 1378 1377 1377 1376 1376 1376 1376 1376 1375 1375 1376 1376 1376 1377 1378 1378 1379
1405 1403 1401 1398 1396 1394 1392 1390 1388 1386 1385 1383 1382 1381 1380 1379 1379 1379 1378 1378 1376 1375 1375 1374 1374 1374 1373 1372 1371 1370 1370 1369 1369 1369 1369 1369 1369 1370 1370 1371 1371 1372 1373
1404 1401 1399 1397 1394 1392 1390 1388 1386 1384 1382 1380 1379 1378 1377 1375 1374 1374 1373 1373 1372 1371 1370 1370 1369 1369 1368 1367 1366 1365 1364 1364 1363 1363 1362 1362 1363 1363 1364 1364 1365 1366 1367
1402 1400 1398 1395 1393 1391 1389 1386 1384 1382 1380 1378 1377 1376 1375 1373 1372 1371 1370 1369 1368 1367 1366 1366 1365 1364 1363 1362 1361 1360 1359 1358 1358 1357 1357 1356 1357 1357 1358 1358 1359 1360 1361
1401 1398 1396 1394 1392 1390 1388 1385 1383 1381 1379 1377 1375 1373 1372 1371 1369 1368 1367 1366 1365 1364 1363 1362 1361 1360 1359 1358 1356 1355 1354 1353 1352 1352 1351 1351 1351 1351 1352 1352 1353 1354 1355
1400 1397 1395 1393 1391 1389 1386 1384 1382 1380 1378 1376 1373 1371 1370 1368 1367 1366 1364 1363 1362 1361 1360 1359 1357 1356 1355 1354 1352 1351 1350 1349 1348 1348 1347 1346 1346 1346 1346 1347 1347 1348 1349
1398 1396 1393 1391 1389 1387 1385 1383 1381 1379 1376 1374 1372 1370 1368 1367 1365 1364 1362 1361 1360 1359 1358 1356 1355 1353 1352 1350 1349 1348 1347 1346 1344 1343 1343 1342 1341 1341 1341 1342 1343 1344 1345
1397 1395 1393 1390 1388 1386 1384 1382 1380 1378 1375 1373 1371 1369 1367 1366 1364 1363 1361 1360 1358 1356 1355 1354 1352 1350 1349 1347 1346 1344 1343 1342 1340 1339 1338 1337 1337 1336 1336 1337 1338 1339 1340
1396 1394 1392 1389 1387 1385 1383 1381 1378 1376 1374 1372 1370 1368 1366 1365 1363 1361 1360 1358 1356 1354 1353 1351 1350 1348 1346 1344 1342 1341 1339 1338 1336 1335 1334 1333 1332 1332 1332 1333 1333 1334 1335